Regional Weather Roundup
Issued by NWS

Home | Current Version | Previous Version | Graphics & Text | Print | Product List | Glossary On
Versions: 1 2 3 4 5 6 7 8 9 10 11 12 13 14 15 16 17 18 19 20 21 22 23 24 25 26 27 28 29 30 31 32 33 34 35 36 37 38 39 40 41 42 43 44 45 46 47 48 49 50
000
ASUS43 KIND 271059
RWRIN

WEATHER ROUNDUP FOR INDIANA
NATIONAL WEATHER SERVICE INDIANAPOLIS IN
700 AM EDT THU APR 27 2017

NOTE: "FAIR" INDICATES FEW OR NO CLOUDS BELOW 12,000 FEET WITH NO
SIGNIFICANT WEATHER AND/OR OBSTRUCTIONS TO VISIBILITY.

* - STATION DOES NOT REPORT WEATHER SUCH AS PRECIPITATION OR FOG.

+ - STATION NOT QUALITY CONTROLLED BY THE NATIONAL WEATHER SERVICE.
    USE DATA WITH CAUTION...ESPECIALLY DEWPOINT AND RELATIVE
    HUMIDITY OBSERVATIONS.

INZ001>003-010>013-019-020-271200-
NORTHWEST INDIANA

CITY           SKY/WX    TMP DP  RH WIND       PRES   REMARKS
GARY /AIRPORT/ LGT RAIN  61  55  82 S14G30    29.32F
KNOX *+        CLOUDY    59  39  47 S18G24    29.38S
MONTICELLO +   CLOUDY    61  54  76 S26G32    29.40S

$$

LMZ046-743>745-271200-
SOUTHERN LAKE MICHIGAN

STATION/POSITION TIME  TEMP    WIND        PRES    WAVE
                       AIR SEA DIR/SP/G            HT
                 (UTC) (F)     (DEG/KT/KT) (MB)    (FT)
BURNS HARBOR     1040   60     170/ 14/ 24  993.9F
MICHIGAN CITY    1030   60     160/ 14/ 17   N/A
5NW MICH CITY    1050   57 49                N/A     2

$$

INZ004-005-014>016-021>024-271200-
NORTH CENTRAL INDIANA

CITY           SKY/WX    TMP DP  RH WIND       PRES   REMARKS
ELKHART        CLOUDY    61  54  77 S9        29.40  SMOKE
GOSHEN         CLOUDY    62  52  69 S17G25    29.41F
SOUTH BEND     CLOUDY    59  55  87 S14       29.39F

$$

INZ006>009-017-018-025>027-271200-
NORTHEAST INDIANA

CITY           SKY/WX    TMP DP  RH WIND       PRES   REMARKS
ANGOLA *+      MOCLDY    63  52  67 S9        29.46F
FORT WAYNE     MOCLDY    60  54  80 S12       29.48F
KENDALLVILLE + CLOUDY    61  55  79 S13G20    29.46F

$$

INZ028-029-035-036-043>045-051>053-271200-
WEST CENTRAL INDIANA

CITY           SKY/WX    TMP DP  RH WIND       PRES   REMARKS
CRAWFORDSVL +  DRIZZLE   58  58 100 S23       29.46R
GREENCASTLE +  CLOUDY    59  54  82 S12G22    29.49R
LAFAYETTE      CLOUDY    60  56  86 S16G33    29.42R
TERRE HAUTE    CLOUDY    56  52  86 SW16G24   29.51R

$$

INZ030>032-037>040-046>048-054>057-064-065-271200-
CENTRAL INDIANA

CITY           SKY/WX    TMP DP  RH WIND       PRES   REMARKS
COLUMBUS       MOCLDY    61  54  77 S16G22    29.54
INDIANAPOLIS   CLOUDY    60  55  83 S24G31    29.49R
-EAGLE CREEK   CLOUDY    61  54  77 S10G23    29.49R
KOKOMO +       CLOUDY    61  55  81 S21G26    29.47R
SHELBYVILLE    CLOUDY    64  53  67 S18G26    29.53R

$$

INZ033-034-041-042-049-050-058-059-271200-
EAST CENTRAL INDIANA

CITY           SKY/WX    TMP DP  RH WIND       PRES   REMARKS
MUNCIE         CLOUDY    64  52  64 S14G22    29.50R
RICHMOND +     CLOUDY    59  50  72 S7        29.55S

$$

INZ060-061-067>069-081>083-085>088-271200-
SOUTHWEST INDIANA

CITY           SKY/WX    TMP DP  RH WIND       PRES   REMARKS
EVANSVILLE     CLOUDY    54  50  86 W10G21    29.59R
HUNTINGBURG *+ LGT RAIN  61  58  90 SW14      29.55R

$$

INZ062-063-066-070>080-084-089>092-271200-
SOUTH CENTRAL AND SOUTHEAST INDIANA

CITY           SKY/WX    TMP DP  RH WIND       PRES   REMARKS
BLOOMINGTON    CLOUDY    60  55  83 S13       29.52R
MADISON *+     CLOUDY    63  54  72 S7        29.58S
SEYMOUR +      LGT RAIN  61  57  88 SE5       29.54F

$$




USA.gov is the U.S. government's official web portal to all federal, state and local government web resources and services.